Tracking 28052 objects as of 25-Sep-2023
HD Live streaming from Space Station
objects crossing your sky now

COSMOS 1474

Track COSMOS 1474 now!
10-day predictions
COSMOS 1474 is classified as:


NORAD ID: 14172
Int'l Code: 1983-069B
Perigee: 1,418.5 km
Apogee: 1,469.3 km
Inclination: 74.0 °
Period: 114.6 minutes
Semi major axis: 7814 km
RCS: 0.7019 m2 (medium)
Launch date: July 6, 1983
Source: Commonwealth of Independent States (former USSR) (CIS)
Launch site: PLESETSK MISSILE AND SPACE COMPLEX (PKMTR)
Your satellite tracking list
Your tracking list is empty




NASA's NSSDC Master Catalog

Two Line Element Set (TLE):
1 14172U 83069B   23267.59948632 -.00000016  00000-0 -26099-6 0  9998
2 14172  74.0281 332.9994 0032499  71.0419  47.8255 12.56648804845087
Source of the keplerian elements: AFSPC